QPF
0.00 0.00 0.00 0.00 0.00 0.00 0.00 0.00 0.00 0.00 0.00 0.00 0.00 0.00 0.00 0.02 0.03 0.02 0.02 0.01 0.01 0.09 0.13 0.12 0.04 0.01 0.00 0.00 0.00 0.00 0.00 0.00
0.00 0.00 0.00 0.00 0.00 0.00 0.00 0.00 0.00 0.00 0.00 0.00 0.00 0.00 0.00 0.01 0.04 0.05 0.05 0.07 0.01 0.03 0.10 0.06 0.01 0.00 0.00 0.00 0.00 0.00 0.00 0.00
0.00 0.00 0.00 0.00 0.00 0.00 0.00 0.00 0.00 0.00 0.00 0.00 0.00 0.00 0.00 0.01 0.03 0.08 0.08 0.18 0.19 0.03 0.05 0.04 0.00 0.00 0.00 0.00 0.00 0.00 0.00 0.00
0.00 0.00 0.00 0.00 0.00 0.00 0.00 0.00 0.00 0.00 0.00 0.00 0.00 0.00 0.00 0.00 0.01 0.02 0.07 0.13 0.18 0.10 0.06 0.02 0.00 0.00 0.00 0.00 0.00 0.00 0.00 0.00
0.00 0.00 0.00 0.00 0.00 0.00 0.00 0.00 0.00 0.00 0.00 0.00 0.00 0.00 0.00 0.00 0.00 0.00 0.00 0.08 0.15 0.08 0.09 0.08 0.02 0.00 0.00 0.00 0.00 0.00 0.00 0.00
0.00 0.00 0.00 0.00 0.00 0.00 0.00 0.00 0.00 0.00 0.00 0.00 0.00 0.00 0.00 0.00 0.00 0.00 0.01 0.01 0.09 0.13 0.08 0.20 0.10 0.02 0.00 0.00 0.00 0.00 0.00 0.00
0.00 0.00 0.00 0.00 0.00 0.00 0.00 0.00 0.00 0.00 0.00 0.00 0.00 0.00 0.00 0.00 0.00 0.00 0.00 0.01 0.03 0.07 0.12 0.19 0.22 0.12 0.02 0.01 0.00 0.00 0.00 0.00
0.00 0.00 0.00 0.00 0.00 0.00 0.00 0.00 0.00 0.00 0.00 0.00 0.00 0.00 0.00 0.00 0.00 0.00 0.00 0.01 0.03 0.08 0.11 0.17 0.18 0.15 0.03 0.01 0.01 0.01 0.00 0.00
0.00 0.00 0.00 0.00 0.00 0.00 0.00 0.00 0.00 0.00 0.00 0.00 0.00 0.00 0.00 0.00 0.00 0.00 0.00 0.00 0.03 0.05 0.11 0.20 0.21 0.23 0.15 0.07 0.01 0.00 0.00 0.00
0.00 0.00 0.00 0.00 0.00 0.00 0.00 0.00 0.00 0.00 0.00 0.00 0.00 0.00 0.00 0.00 0.00 0.00 0.00 0.00 0.04 0.07 0.05 0.08 0.14 0.18 0.15 0.13 0.09 0.02 0.00 0.00
0.00 0.00 0.00 0.00 0.00 0.00 0.00 0.00 0.00 0.00 0.00 0.00 0.00 0.00 0.00 0.00 0.00 0.00 0.00 0.00 0.01 0.03 0.02 0.02 0.03 0.05 0.06 0.06 0.03 0.01 0.00 0.00
0.00 0.00 0.00 0.00 0.00 0.00 0.00 0.00 0.00 0.00 0.00 0.00 0.00 0.00 0.00 0.00 0.00 0.00 0.00 0.00 0.00 0.00 0.00 0.00 0.03 0.03 0.02 0.01 0.00 0.00 0.00 0.00
0.00 0.00 0.00 0.00 0.00 0.00 0.00 0.00 0.00 0.00 0.00 0.00 0.00 0.00 0.00 0.00 0.00 0.00 0.00 0.00 0.00 0.00 0.00 0.00 0.00 0.02 0.01 0.00 0.00 0.00 0.00 0.00
0.00 0.00 0.00 0.00 0.00 0.00 0.00 0.00 0.00 0.00 0.00 0.00 0.00 0.00 0.00 0.00 0.00 0.00 0.00 0.00 0.00 0.00 0.00 0.00 0.00 0.00 0.00 0.00 0.00 0.00 0.00 0.00
0.00 0.00 0.00 0.00 0.00 0.00 0.00 0.00 0.00 0.01 0.00 0.00 0.00 0.00 0.00 0.00 0.00 0.00 0.00 0.00 0.00 0.00 0.00 0.00 0.00 0.00 0.00 0.00 0.00 0.00 0.00 0.00
0.00 0.00 0.00 0.00 0.01 0.02 0.02 0.03 0.07 0.08 0.02 0.00 0.00 0.00 0.00 0.00 0.00 0.00 0.00 0.00 0.00 0.00 0.00 0.00 0.00 0.00 0.00 0.00 0.00 0.00 0.00 0.00
0.00 0.02 0.04 0.04 0.05 0.09 0.13 0.17 0.21 0.10 0.07 0.05 0.01 0.00 0.00 0.00 0.00 0.00 0.00 0.00 0.00 0.00 0.00 0.00 0.00 0.00 0.00 0.00 0.00 0.00 0.00 0.00
0.01 0.02 0.05 0.06 0.07 0.06 0.13 0.20 0.23 0.16 0.11 0.07 0.04 0.03 0.01 0.00 0.00 0.00 0.00 0.00 0.00 0.00 0.00 0.00 0.00 0.00 0.00 0.00 0.00 0.00 0.00 0.00
0.00 0.01 0.02 0.03 0.03 0.03 0.01 0.04 0.05 0.06 0.05 0.08 0.10 0.06 0.04 0.03 0.01 0.00 0.00 0.00 0.00 0.00 0.00 0.00 0.00 0.00 0.00 0.00 0.00 0.00 0.00 0.00
MSLP
1000.81 1001.01 1001.29 1002.30 1003.29 1004.40 1005.27 1006.26 1006.94 1007.42 1007.92 1008.21 1008.39 1008.59 1008.79 1008.88 1009.37 1009.69 1010.18 1010.45 1011.15 1011.74 1012.29 1013.23 1013.69 1014.49 1015.34 1015.74 1016.36 1017.11 1017.76 1018.47
1000.62 1000.81 1001.81 1002.58 1003.33 1004.16 1004.92 1005.91 1006.75 1007.21 1007.74 1008.01 1008.26 1008.41 1008.75 1008.93 1009.17 1009.24 1009.80 1010.04 1010.77 1011.56 1012.24 1013.03 1013.75 1014.56 1014.91 1015.45 1016.26 1016.94 1017.97 1018.35
1001.34 1001.38 1002.25 1002.07 1002.57 1003.64 1004.64 1005.50 1006.28 1006.61 1007.27 1007.60 1007.84 1008.28 1008.71 1008.93 1009.13 1009.14 1009.34 1009.80 1010.13 1010.99 1011.96 1012.68 1013.58 1014.29 1014.83 1015.11 1015.71 1016.83 1017.71 1018.05
1001.21 1001.61 1002.44 1002.17 1002.52 1003.08 1004.09 1005.15 1005.76 1006.26 1007.05 1007.53 1007.90 1008.40 1008.78 1009.04 1009.21 1009.16 1009.30 1009.41 1009.63 1010.38 1011.56 1012.39 1012.97 1013.63 1014.34 1014.74 1015.30 1015.91 1017.07 1018.02
1000.15 1001.08 1002.12 1001.73 1002.05 1003.06 1004.00 1004.98 1005.52 1005.99 1006.74 1007.27 1007.55 1007.89 1008.27 1008.67 1009.09 1009.33 1009.34 1009.30 1009.49 1010.28 1010.98 1011.99 1012.50 1013.29 1013.61 1014.48 1015.11 1015.66 1016.37 1017.35
999.38 1000.07 1000.26 1001.54 1001.96 1002.61 1003.49 1004.52 1005.27 1005.72 1006.27 1007.02 1007.31 1007.66 1008.06 1008.62 1009.15 1009.44 1009.46 1009.53 1009.77 1009.59 1010.51 1011.57 1012.03 1012.81 1013.91 1013.87 1014.95 1015.49 1016.15 1016.96
998.43 998.77 1000.24 1001.56 1002.81 1002.84 1003.38 1004.08 1004.70 1005.43 1006.10 1006.82 1007.03 1007.45 1008.03 1008.59 1009.11 1009.37 1009.42 1009.55 1009.67 1009.94 1010.38 1010.82 1012.26 1012.73 1013.75 1014.14 1014.47 1015.32 1016.10 1016.79
998.05 998.91 999.58 1000.63 1001.60 1002.73 1003.06 1003.61 1004.19 1005.20 1005.85 1006.53 1006.90 1007.27 1007.68 1008.19 1008.87 1009.24 1009.42 1009.61 1009.77 1009.90 1010.44 1011.21 1011.98 1012.62 1013.75 1014.47 1014.36 1015.40 1016.18 1016.54
996.94 997.24 998.37 999.60 1000.78 1001.85 1002.45 1003.12 1003.85 1004.86 1005.41 1006.12 1006.66 1007.06 1007.40 1007.82 1008.61 1009.10 1009.45 1009.67 1009.87 1010.15 1010.52 1011.09 1011.79 1012.56 1013.29 1014.21 1014.83 1015.98 1015.91 1017.00
996.58 996.47 997.33 998.62 999.76 1000.83 1001.59 1002.46 1003.41 1004.37 1005.03 1005.83 1006.49 1006.79 1007.18 1007.48 1008.41 1008.98 1009.35 1009.82 1010.14 1010.45 1010.82 1011.40 1011.94 1012.82 1013.53 1014.02 1015.06 1015.70 1016.24 1016.76
995.71 996.56 997.06 998.03 999.17 1000.54 1001.55 1002.10 1002.74 1003.83 1004.70 1005.47 1006.12 1006.55 1006.82 1007.29 1007.90 1008.69 1009.06 1009.58 1010.05 1010.46 1010.89 1011.30 1011.78 1012.54 1013.63 1014.43 1015.38 1015.69 1016.20 1016.49
997.22 997.16 997.83 999.06 999.38 999.99 1000.94 1001.74 1002.45 1003.44 1004.27 1005.06 1005.72 1006.23 1006.56 1007.06 1007.63 1008.16 1008.88 1009.33 1009.91 1010.58 1011.02 1011.44 1011.91 1012.47 1013.26 1014.06 1014.61 1015.11 1015.38 1015.90
997.84 996.68 997.37 998.62 999.86 1000.03 1000.58 1001.30 1002.17 1002.97 1003.76 1004.59 1005.27 1005.86 1006.26 1006.89 1007.40 1007.92 1008.34 1009.04 1009.58 1010.19 1010.94 1011.44 1011.79 1012.31 1012.96 1013.57 1014.12 1014.60 1014.98 1015.04
996.45 996.03 996.78 997.57 999.29 1000.36 1000.43 1000.97 1001.69 1002.49 1003.30 1003.98 1004.77 1005.36 1005.79 1006.29 1006.95 1007.50 1008.14 1008.64 1009.16 1009.71 1010.32 1011.02 1011.62 1012.17 1012.70 1013.18 1013.65 1013.99 1014.19 1014.47
996.96 995.85 996.76 997.78 998.60 1000.03 1000.63 1000.71 1001.32 1002.18 1002.82 1003.44 1004.09 1004.69 1005.15 1005.61 1006.10 1006.93 1007.64 1008.25 1008.83 1009.34 1009.70 1010.30 1011.04 1011.69 1012.28 1012.81 1013.29 1013.66 1013.82 1014.05
999.37 998.02 997.98 998.71 999.23 1000.11 1000.97 1001.61 1001.91 1002.50 1002.95 1003.20 1003.69 1004.36 1004.93 1005.44 1005.77 1006.06 1006.95 1007.73 1008.32 1008.87 1009.34 1009.71 1010.15 1010.73 1011.34 1012.03 1012.56 1012.94 1013.23 1013.50
1001.46 1000.92 1000.10 999.89 999.80 1000.09 1000.79 1001.46 1001.86 1002.14 1002.88 1003.48 1003.92 1004.30 1004.80 1005.17 1005.65 1005.96 1006.27 1006.96 1007.62 1008.30 1008.73 1009.22 1009.67 1009.98 1010.35 1010.81 1011.39 1011.95 1012.35 1012.72
1003.33 1003.14 1002.54 1001.66 1001.44 1001.05 1001.03 1001.02 1001.59 1002.13 1002.57 1002.77 1003.24 1003.75 1004.29 1004.74 1005.29 1005.80 1006.07 1006.33 1007.04 1007.54 1007.99 1008.51 1008.83 1009.21 1009.59 1010.09 1010.67 1011.25 1011.73 1011.99
1004.27 1003.96 1003.37 1003.26 1002.97 1001.95 1001.72 1001.24 1001.39 1001.80 1002.60 1003.11 1003.34 1003.48 1003.76 1004.36 1004.81 1005.14 1005.65 1006.24 1006.45 1006.95 1007.38 1007.74 1008.16 1008.40 1008.88 1009.37 1010.01 1010.74 1011.09 1011.46
Thickness
5715 5714 5716 5708 5700 5690 5682 5672 5664 5657 5651 5647 5645 5643 5639 5635 5630 5625 5622 5620 5615 5610 5607 5602 5602 5600 5599 5601 5601 5598 5596 5595
5708 5709 5706 5699 5693 5686 5679 5670 5660 5655 5648 5644 5642 5640 5634 5630 5625 5622 5620 5619 5615 5609 5606 5602 5599 5597 5599 5599 5595 5595 5589 5592
5694 5695 5695 5697 5694 5684 5675 5668 5659 5656 5648 5644 5640 5635 5630 5625 5619 5618 5617 5616 5616 5611 5605 5601 5599 5597 5596 5596 5596 5590 5588 5589
5684 5685 5684 5688 5688 5682 5674 5666 5658 5653 5645 5639 5636 5630 5625 5620 5615 5614 5613 5614 5614 5611 5605 5601 5601 5601 5597 5596 5595 5593 5588 5584
5685 5682 5680 5685 5684 5676 5669 5661 5655 5650 5643 5638 5635 5631 5626 5619 5613 5609 5610 5612 5613 5607 5604 5600 5601 5599 5598 5596 5592 5590 5589 5584
5679 5680 5687 5678 5677 5673 5667 5659 5652 5648 5642 5635 5632 5628 5623 5613 5607 5604 5605 5607 5609 5611 5604 5600 5600 5597 5592 5595 5589 5587 5586 5583
5676 5683 5676 5671 5662 5664 5663 5657 5652 5645 5639 5633 5630 5625 5617 5609 5601 5599 5600 5601 5603 5604 5603 5600 5592 5589 5586 5588 5587 5584 5581 5579
5668 5672 5673 5671 5666 5657 5658 5655 5651 5642 5636 5631 5627 5622 5615 5608 5598 5596 5596 5597 5597 5598 5595 5590 5589 5585 5581 5579 5582 5577 5575 5576
5670 5680 5675 5672 5664 5657 5656 5654 5649 5641 5636 5630 5625 5619 5614 5608 5596 5592 5591 5591 5590 5588 5587 5586 5585 5582 5579 5575 5575 5568 5572 5566
5666 5678 5676 5674 5668 5658 5657 5653 5647 5640 5635 5628 5622 5618 5613 5609 5599 5591 5587 5584 5582 5581 5582 5580 5579 5574 5571 5570 5565 5563 5565 5561
5669 5669 5671 5674 5665 5655 5651 5651 5648 5641 5634 5627 5622 5618 5614 5609 5604 5596 5591 5588 5585 5583 5580 5578 5577 5573 5567 5561 5559 5559 5557 5557
5646 5655 5659 5653 5656 5654 5650 5649 5646 5639 5633 5626 5622 5618 5614 5610 5605 5600 5593 5589 5583 5578 5575 5574 5573 5569 5565 5561 5560 5558 5559 5555
5635 5656 5655 5651 5643 5648 5647 5648 5643 5638 5634 5627 5622 5618 5614 5609 5605 5600 5596 5590 5585 5581 5575 5572 5570 5568 5566 5564 5561 5560 5558 5560
5646 5659 5657 5654 5643 5637 5642 5645 5642 5637 5633 5628 5622 5619 5615 5611 5606 5602 5597 5591 5588 5584 5580 5576 5572 5568 5566 5564 5562 5561 5562 5562
5640 5659 5657 5649 5645 5636 5635 5640 5639 5634 5631 5629 5624 5620 5618 5614 5611 5604 5598 5594 5589 5585 5583 5579 5574 5570 5567 5564 5562 5560 5561 5562
5615 5636 5642 5638 5635 5629 5625 5624 5625 5624 5623 5625 5623 5619 5615 5612 5611 5609 5601 5594 5590 5586 5583 5581 5579 5575 5571 5567 5564 5562 5561 5560
5592 5606 5617 5628 5628 5627 5624 5621 5622 5622 5619 5615 5614 5613 5611 5609 5606 5605 5604 5597 5591 5587 5585 5582 5580 5579 5575 5571 5568 5565 5562 5560
5568 5578 5588 5600 5607 5615 5620 5621 5618 5614 5612 5614 5613 5611 5609 5607 5603 5600 5599 5599 5592 5589 5586 5583 5581 5579 5575 5572 5567 5566 5562 5561
5555 5563 5575 5581 5588 5599 5605 5614 5614 5612 5607 5605 5605 5604 5605 5603 5601 5600 5597 5592 5592 5589 5586 5584 5582 5581 5575 5570 5564 5561 5560 5557